Location: Unspecified
(0.0000°N, 0.0000°E)
Time: 02:33:16
(UTC+01:00)

Cosmos 1125 Rocket - Visible Passes

Search period start: 13 December 2017 00:00
Search period end: 23 December 2017 00:00
Orbit: 758 x 780 km, 74.0° (Epoch: 11 December)

Date Brightness Start Highest point End Pass type
(mag) Time Alt. Az. Time Alt. Az. Time Alt. Az.
13 Dec 5.0 06:00:05 10° NNE 06:04:49 36° ENE 06:09:32 10° SE visible
14 Dec 6.1 05:24:40 10° NE 05:28:06 18° ENE 05:31:33 10° ESE visible
16 Dec 3.6 05:51:20 10° N 05:56:30 76° ENE 06:01:40 10° SSE visible
17 Dec 4.9 05:15:05 10° NNE 05:19:48 36° ENE 05:24:32 10° SE visible
18 Dec 5.9 04:39:46 10° NE 04:43:06 18° ENE 04:46:32 10° ESE visible
18 Dec 4.6 06:20:40 10° NW 06:24:53 25° WSW 06:29:07 10° SSW visible
19 Dec 3.6 05:45:02 22° NW 05:48:11 52° WSW 05:53:13 10° S visible
20 Dec 3.5 05:09:53 45° N 05:11:29 75° ENE 05:16:40 10° SSE visible
21 Dec 4.7 04:34:41 36° ENE 04:34:48 36° ENE 04:39:31 10° SE visible
21 Dec 5.3 06:15:02 11° W 06:16:36 12° WSW 06:18:40 10° SW visible
22 Dec 6.0 03:59:26 16° E 03:59:26 16° E 04:01:31 10° ESE visible
22 Dec 4.5 05:39:46 25° W 05:39:53 26° WSW 05:44:08 10° SSW visible
